Home   Weather   Naples   Past weeks

Flag for Italy Past Weather in Naples, Italy — Yesterday and Last 2 Weeks

Now
52 °F

Clear.


Feels Like: 51 °F
Forecast: 46 / 61 °F
Wind: 5 mph from Northwest

Location: Naples / Capodichino

Current Time: Dec 4, 2016 at 9:31:29 pm

Latest Report: Dec 4, 2016 at 8:50 pm


Visibility: 10 mi

Pressure: 30.24 "Hg

Humidity: 72%

Dew Point: 43 °F

Location of NaplesLocation

Past Weather in Naples — Graph

°F

Naples Temperature Yesterday

Maximum temperature yesterday: 61 °F (at 11:20 am)
Minimum temperature yesterday: 45 °F (at 4:50 am)
Average temperature yesterday: 54 °F

High & Low Weather Summary for the Past Weeks

 TemperatureHumidityPressure
High72 °F (Nov 23, 11:20 am)100% (Nov 26, 5:20 am)30.39 "Hg (Nov 26, 5:20 am)
Low34 °F (Dec 1, 6:20 am)31% (Dec 1, 1:50 pm)29.77 "Hg (Nov 28, 3:50 am)
Average55 °F72%30.07 "Hg
* Reported Nov 19 7:20 pm — Dec 4 7:50 pm, Naples, Weather by CustomWeather, © 2016

Note: Actual official high and low records may vary slightly from our data, if they occured in-between our weather recording intervals... More about our weather records

Advertising

Naples Weather History for the Previous 24 Hours

Scroll right to see more
 ConditionsComfort  
Time TempWeatherWind HumidityBarometerVisibility
7:50 pm
Sun, Dec 4
52 °FClear.2 mph67%30.24 "Hg10 mi
7:20 pm54 °FClear.3 mph63%30.24 "Hg10 mi
6:50 pm55 °FClear.2 mph59%30.24 "Hg10 mi
6:20 pm55 °FClear.2 mph59%30.21 "Hg10 mi
5:50 pm55 °FPassing clouds.5 mph59%30.21 "HgN/A
5:20 pm57 °FClear.2 mph55%30.21 "Hg10 mi
4:50 pm57 °FPassing clouds.3 mph59%30.18 "HgN/A
4:20 pm59 °FPassing clouds.3 mph55%30.18 "HgN/A
3:50 pm61 °FPassing clouds.5 mph52%30.18 "HgN/A
3:20 pm63 °FPassing clouds.6 mph49%30.18 "HgN/A
2:50 pm63 °FPassing clouds.6 mph42%30.18 "HgN/A
2:20 pm63 °FPassing clouds.5 mph45%30.18 "HgN/A
1:50 pm63 °FPassing clouds.5 mph49%30.18 "HgN/A
1:20 pm63 °FPassing clouds.5 mph45%30.18 "HgN/A
12:50 pm63 °FPassing clouds.3 mph52%30.18 "HgN/A
12:20 pm64 °FSunny.2 mph46%30.18 "Hg10 mi
11:50 am63 °FPassing clouds.5 mph49%30.21 "HgN/A
11:20 am61 °FSunny.6 mph52%30.21 "Hg10 mi
10:50 am61 °FPassing clouds.5 mph52%30.21 "HgN/A
10:20 am61 °FPassing clouds.6 mph55%30.21 "HgN/A
9:50 am59 °FPassing clouds.7 mph59%30.21 "HgN/A
9:20 am57 °FScattered clouds.6 mph63%30.21 "HgN/A
8:50 am55 °FScattered clouds.5 mph67%30.18 "HgN/A
8:20 am54 °FScattered clouds.2 mph72%30.18 "HgN/A
7:50 am52 °FScattered clouds.5 mph77%30.18 "HgN/A
7:20 am52 °FScattered clouds.5 mph77%30.18 "HgN/A
6:50 am52 °FPassing clouds.3 mph72%30.15 "HgN/A
6:20 am52 °FPassing clouds.5 mph72%30.15 "HgN/A
5:50 am52 °FPassing clouds.5 mph77%30.15 "HgN/A
5:20 am52 °FPassing clouds.5 mph72%30.15 "HgN/A
4:50 am52 °FPassing clouds.2 mph77%30.15 "Hg4 mi
4:20 am52 °FPassing clouds.3 mph77%30.15 "Hg4 mi
3:20 am54 °FPassing clouds.5 mph72%30.15 "Hg4 mi
2:50 am52 °FPassing clouds.3 mph77%30.15 "Hg4 mi
2:20 am52 °FPassing clouds.3 mph77%30.18 "Hg4 mi
1:50 am52 °FPassing clouds.3 mph77%30.15 "Hg4 mi
1:20 am52 °FPassing clouds.3 mph77%30.15 "Hg4 mi
12:50 am54 °FPassing clouds.5 mph72%30.15 "Hg4 mi
11:50 pm
Sat, Dec 3
54 °FPassing clouds.2 mph72%30.15 "Hg4 mi
11:20 pm54 °FPassing clouds.3 mph72%30.15 "Hg4 mi
10:50 pm54 °FPassing clouds.3 mph72%30.15 "Hg4 mi
10:20 pm54 °FPassing clouds.2 mph77%30.15 "Hg4 mi
9:50 pm54 °FPassing clouds.2 mph72%30.15 "Hg4 mi
9:20 pm52 °FPassing clouds.1 mph77%30.15 "Hg4 mi
Weather by CustomWeather, © 2016

See weather overviewHow to use our weather pages